Regional Weather Roundup
Issued by NWS

Home | Current Version | Previous Version | Graphics & Text | Print | Product List | Glossary On
Versions: 1 2 3 4 5 6 7 8 9 10 11 12 13 14 15 16 17 18 19 20 21 22 23 24 25 26 27 28 29 30 31 32 33 34 35 36 37 38 39 40 41 42 43 44 45 46 47 48 49 50
000
ASUS45 KTFX 211419
RWRMT
MONTANA HOURLY WEATHER ROUNDUP
NATIONAL WEATHER SERVICE GREAT FALLS MT
819 AM MDT TUE OCT 21 2014

NOTE: "FAIR" INDICATES FEW OR NO CLOUDS BELOW 12000 FEET WITH NO
SIGNIFICANT WEATHER AND/OR OBSTRUCTIONS TO VISIBILITY.

* THESE STATIONS ARE NOT UNDER NWS QUALITY CONTROL. THEY DO NOT
   REPORT WEATHER SUCH AS PRECIPITATION OR FOG.

MTZ001>007-043-211500-
WEST OF THE DIVIDE
CITY           SKY/WX    TMP DP  RH WIND       PRES   REMARKS
KALISPELL      LGT RAIN  45  43  93 E3        29.77R
MISSOULA       CLOUDY    48  48 100 N8         N/A
BUTTE          CLOUDY    48  36  63 S5        29.76F
MULLAN PASS    LGT RAIN  36  36 100 VRB7      29.85R VSB M1/4 WCI  30
* ESSEX        N/A       38  35  89 N/A        N/A
* LINCOLN      N/A       36  32  85 S2         N/A
* POLSON       N/A       47  47 100 SW1        N/A
* RONAN APT    CLOUDY    48  46  93 N/A        N/A
* SEELEY LAKE  N/A       40  37  89 NW1        N/A
* THOMP F APT  CLOUDY    46  41  83 E5G17      N/A
$$

MTZ008-052>055-211500-
SOUTHWEST MONTANA
CITY           SKY/WX    TMP DP  RH WIND       PRES   REMARKS
BOZEMAN        PTSUNNY   46  37  71 SW6       29.74F
DILLON         PTSUNNY   57  37  47 S20G28    29.75F
W YELLOWSTONE  LGT RAIN  37  37 100 NE5       29.93S WCI  33
* THREE FORKS  CLOUDY    46  46 100 N/A        N/A
* BOULDER HILL N/A       50  30  46 S9         N/A
* MONIDA PASS  N/A       43  43 100 SE8        N/A
* RAYNOLDS PAS N/A       44  24  45 SE17G22    N/A
* WHITEHALL    N/A       44  38  80 W3G10      N/A
* WISE RIVER   N/A       37  33  85 W3G9       N/A
$$

MTZ009>010-012-014-046-048-049-054-211500-
EAST SLOPES AND CENTRAL MONTANA
CITY           SKY/WX    TMP DP  RH WIND       PRES   REMARKS
CUT BANK       CLOUDY    55  36  49 NW13      29.65F
GREAT FALLS    CLOUDY    57  37  47 S10       29.65F
HELENA         CLOUDY    50  37  61 E8        29.72R
MALMSTROM AFB  PTSUNNY   50  36  59 N3        29.66F
* CONRAD       CLOUDY    43  36  76 N/A        N/A
* DEARBORN     N/A       46  37  71 S4         N/A
* EAST GLACIER N/A       51  36  57 W16        N/A
* MONARCH      N/A       48  29  48 S9         N/A
* PENDROY      N/A       54  35  49 W4         N/A
* ROGERS PASS  N/A       49  31  50 SW4        N/A
* SAINT MARY   N/A       53  34  49 S6G13      N/A
* SWEET GRASS  N/A       53  31  43 NW6        N/A
* WHITE SULPH  N/A       48  33  56 E10G15     N/A
$$

MTZ011-013-016-021-035-040-045-047-050-051-211500-
NORTH CENTRAL MONTANA
CITY           SKY/WX    TMP DP  RH WIND       PRES   REMARKS
HAVRE          PTSUNNY   37  34  89 CALM      29.63F
LEWISTOWN      PTCLDY    52  36  55 E6        29.70F
* CHINOOK      PTCLDY    37  36  96 CALM      29.63S
* FORT BENTON  PTSUNNY   46  34  63 S6        29.65F
* CHESTER      N/A       38  30  73 N/A        N/A
* DENTON       N/A       49  39  69 S11        N/A
* GEYSER       N/A       54  35  49 E4         N/A
* JUDITH GAP   N/A       43  35  73 S6         N/A
* LOMA         N/A       41  32  70 W4         N/A
$$

MTZ017>020-022>027-061-062-211500-
NORTHEAST MONTANA
CITY           SKY/WX    TMP DP  RH WIND       PRES   REMARKS
GLASGOW        PTCLDY    45  37  74 E14       29.66F
GLENDIVE       SUNNY     39  37  93 N5        29.73S WCI  35
JORDAN         PTCLDY    36  32  85 CALM      29.68F
SIDNEY         SUNNY     37  36  96 NW5       29.75S WCI  33
WOLF POINT     SUNNY     37  36  96 NE8       29.71F WCI  31
* BEAVER HILL  N/A       47  40  77 SE12       N/A
* CIRCLE       N/A       45  40  83 N/A        N/A
* LINDSAY DVD  N/A       49  42  77 E3         N/A
* NAVAJO       N/A       41  38  89 S5         N/A
* SACO         N/A       41  38  89 N/A        N/A
$$

MTZ028>042-056>058-211500-
SOUTHCENTRAL AND SOUTHEAST MONTANA
CITY           SKY/WX    TMP DP  RH WIND       PRES   REMARKS
BAKER          SUNNY     39  37  93 E5        29.75S WCI  35
BILLINGS       SUNNY     52  28  40 SW16      29.73S
LIVINGSTON     CLOUDY    63  36  37 SW25G31   29.77F
MILES CITY     FOG       41  37  86 SE7       29.71F VSB 3
* LAUREL APT   SUNNY     46  27  48 N/A        N/A
* ROUNDUP APT  SUNNY     43  28  56 SW9        N/A
* ALZADA       N/A       54  38  55 E4         N/A
* HYSHAM       N/A       53  28  38 W6         N/A
* LAME DEER    N/A       60  30  32 SW3        N/A
* REED POINT   N/A       34  33  96 N/A        N/A
* ROSCOE HILL  N/A       58  24  27 S6         N/A
$$

REGIONAL REPORTS...DAKOTAS
CITY           SKY/WX    TMP DP  RH WIND       PRES   REMARKS
WILLISTON      FOG       39  36  89 N3        29.74F
DICKINSON      SUNNY     39  36  89 SE7       29.75F WCI  34
BEACH          N/A       39  39 100 S7        29.75F WCI  34
CROSBY         SUNNY     46  37  71 S8        29.75R
TIOGA          SUNNY     43  39  86 SE5       29.80F
BISMARCK       SUNNY     48  37  66 E8        29.83F
GRAND FORKS    SUNNY     39  37  93 SE10      30.01F WCI  32
FARGO          SUNNY     46  37  71 SE17G28   30.02F
BUFFALO SD     SUNNY     48  39  71 S8        29.71S
RAPID CITY     SUNNY     48  39  71 E5        29.84R
$$

REGIONAL REPORTS...WYOMING/IDAHO/WASHINGTON
CITY           SKY/WX    TMP DP  RH WIND       PRES   REMARKS
GILLETTE       SUNNY     61  36  39 SW21      29.81S
SHERIDAN       PTCLDY    52  32  47 NW3       29.77S
CODY           PTCLDY   N/A N/A N/A S7        29.82F
YELLOWSTONE LA PTCLDY    32  30  92 W3        30.00F
SALMON         CLOUDY    50  45  83 NW5       29.74S
MULLAN PASS    LGT RAIN  36  36 100 VRB7      29.85S VSB M1/4 WCI  30
SAND POINT     CLOUDY    50  45  83 S5        29.85R
SPOKANE        CLOUDY    48  45  89 SW8       29.87R
$$

REGIONAL REPORTS...ALBERTA
CITY           SKY/WX    TMP DP  RH WIND       PRES   REMARKS
CALGARY        CLOUDY    46  34  63 S2        29.63S
LETHBRIDGE     CLOUDY    50  37  61 W10       29.63F
MEDICINE HAT   PTSUNNY   46  39  77 S6        29.64R
EDMONTON       PTSUNNY   37  34  89 SW5       29.62R WCI  33
WATERTON GATE  N/A       48  37  66 S5         N/A
CARDSTON       N/A       54  39  57 W3         N/A
MILK RIVER     N/A       54  36  51 W6         N/A
$$

REGIONAL REPORTS...SASKATCHEWAN
CITY           SKY/WX    TMP DP  RH WIND       PRES   REMARKS
SWIFT CURRENT  SUNNY     43  37  79 S10       29.62F
MOOSE JAW      SUNNY     37  36  96 E7        29.66S WCI  32
REGINA         N/A       43  39  86 SE15      29.69S
VAL MARIE      N/A       36  34  92 CALM       N/A
ASSINIBOIA     N/A       43  37  79 E8         N/A
CORONACH       N/A       36  34  92 SE2        N/A

$$



USA.gov is the U.S. government's official web portal to all federal, state and local government web resources and services.